www.srh.weather.gov   
NOAA logo - Click to go to the NOAA homepage   NWS logo
Weather Roundup
Enter Your "City, ST" or zip code   
Current Version              Previous Version:    01  02  03  04  05  06  07  08  09  10  11  12  13  14  15  16  17  18  19  20  21  22  23  24  25  26  27  28  29  30  
   31  32  33  34  35  36  37  38  39  40  41  42  43  44  45  46  47  48  49  50  51  52  53  54  55  56  57  58  59  60  
[Printable]
140
ASUS44 KCRP 280810
HRRCRP

SOUTH TEXAS REGIONAL WEATHER ROUNDUP
NATIONAL WEATHER SERVICE CORPUS CHRISTI TX
200 AM CST FRI NOV 28 2014


TXZ229>244-280900-
...CORPUS CHRISTI AREA OBSERVATIONS...

CITY           SKY/WX    TMP DP  RH WIND       PRES   REMARKS
CORPUS CHRISTI PTCLDY    57  55  93 E6        30.33F
NAS CORPUS CHR CLEAR     59  59 100 E6        30.33F
ROCKPORT       CLEAR     58  55  90 E6        30.34F
KINGSVILLE NAS CLEAR     53  52  96 NW5       30.34F
ALICE          CLEAR     51  49  92 NW3       30.34F
FALFURRIAS     MOCLDY    52  51  94 CALM      30.34F
$$

...VICTORIA AREA OBSERVATIONS...

CITY           SKY/WX    TMP DP  RH WIND       PRES   REMARKS
VICTORIA       CLEAR     48  45  89 E5        30.36F
BEEVILLE       FAIR      49  49  99 NE5       30.35S
PLEASANTON     CLEAR     43  40  88 CALM      30.36S
SAN ANTONIO    CLEAR     43  37  79 NW5       30.36F
$$

...LAREDO AREA OBSERVATIONS...

CITY           SKY/WX    TMP DP  RH WIND       PRES   REMARKS
LAREDO         CLEAR     55  55 100 SE6       30.36F
COTULLA        CLEAR     50  46  86 E3        30.35F
DEL RIO        CLEAR     46  38  73 E5        30.33F
MCALLEN        CLEAR     55  54  96 S3        30.34F FOG
HEBBRONVILLE   FOG       55  54  97 CALM      30.35F VSB 1/4
$$

...OTHER TEXAS OBSERVATIONS...

CITY           SKY/WX    TMP DP  RH WIND       PRES   REMARKS
BROWNSVILLE    FOG       54  52  94 CALM      30.34F VSB 1
HOUSTON        CLEAR     42  39  89 CALM      30.38F
COL. STATION   CLEAR     46  34  62 SE5       30.37F
AUSTIN         CLEAR     34  33  96 CALM      30.36F
WACO           CLEAR     36  32  85 CALM      30.35F
FORT WORTH     CLEAR     42  30  62 S6        30.30F
WICHITA FALLS  CLEAR     42  29  59 S9        30.24F
LUBBOCK        PTCLDY    46  29  51 SW15G24   30.20F
EL PASO        PTCLDY    45  21  38 CALM      30.27F
$$

...MARINE OBSERVATIONS...

STATION/POSITION TIME  SKY/WX   TEMP    WIND        PRES    VSBY  WAVE   SWELL
                                AIR SEA DIR/SP/G                  HT/PER HT/PER
                 (UTC)          (F)     (DEG/KT/KT) (MB)    (MI)  (FT/S) (FT/S)
PORT ARANSAS     0800            66 63  110/  8/  8 1027.7F
BUOY 90 E PORT A 0800            67 72  120/ 10/ 12 1028.3F         3/ 6   3/ 6
BUOY 45 SE BAFFI 0800            71 73  180/ 12/ 14 1026.9F         3/ 6   2/ 6
BUOY 200 E PT IS 0800            69 74   70/  8/ 10 1027.7F         3/ 6   3/ 6
BUOY 15 E GALVES 0800            60 61  100/ 10/ 12 1028.5F         1/ 4
$$



National Weather Service
Disclaimer
Last Modified: August 31, 2005
Privacy Policy